[[{"header":{"parameterUnit":"m.s-1","parameterCategory":1,"la1":30.2991,"la2":30.254,"lo1":-89.0895,"lo2":-89.0444,"dy":0.0017,"dx":0.0017,"nx":28,"ny":28,"refTime":"2024-10-02T09:00:00:Z","depth":0,"parameterNumber":2,"parameterNumberName":"U-component_of_WINDS"},"data":[0,0,0,0,0,0,0,0,0,0,0,0,0,0,0,0,0,0,0,0,0,0,0,0,0,0,0,0,0,0,0,0,0,0,0,0,0,0,0,0,0,0,0,0,0,0,0,0,0,0,0,0,0,0,0,0,0,0,-0.1483,-0.1484,0,-0.1533,-0.1534,-0.1534,-0.1545,-0.1545,-0.1545,-0.1544,-0.1597,-0.1599,-0.16,0,0,0,0,0,0,0,0,0,0,0,0,0,-0.1399,-0.14,-0.1483,-0.1484,-0.1484,-0.1533,-0.1534,-0.1534,-0.1545,-0.1545,-0.1544,-0.1544,-0.1596,-0.1599,-0.1601,0,0,0,0,0,0,0,0,0,0,0,0,0,-0.1441,-0.1401,-0.1483,-0.1496,-0.1497,-0.1533,-0.1534,-0.1535,-0.1545,-0.1545,-0.1544,-0.1544,-0.1596,-0.1598,-0.1601,-0.1628,0,0,-0.1609,-0.161,0,0,0,0,0,0,0,0,-0.1438,-0.1444,-0.1493,-0.1495,-0.1497,-0.1532,-0.1523,-0.1566,-0.1546,-0.1527,-0.1544,-0.1544,-0.1576,-0.158,-0.1591,-0.1631,-0.1633,-0.1609,-0.1611,-0.1612,-0.1613,0,0,0,0,0,0,0,-0.1436,-0.1442,-0.1503,-0.1494,-0.1496,-0.1499,-0.1505,-0.1532,-0.1554,-0.1529,-0.153,-0.1535,-0.1577,-0.1588,-0.1592,-0.1634,-0.1609,-0.1611,-0.1613,-0.1614,-0.1699,-0.17,0,0,0,0,0,0,-0.143,-0.1439,-0.1501,-0.1504,-0.1466,-0.1501,-0.1507,-0.1522,-0.1554,-0.1558,-0.1536,-0.1536,-0.1584,-0.1589,-0.1594,-0.1629,-0.1612,-0.1614,-0.1616,-0.1698,-0.1699,-0.17,0,0,0,0,0,0,-0.1428,-0.1436,-0.1499,-0.1472,-0.1481,-0.1503,-0.1519,-0.1523,-0.1534,-0.1559,-0.1563,-0.1543,-0.1584,-0.159,-0.162,-0.1631,-0.1616,-0.1618,-0.1698,-0.1699,-0.17,-0.1699,0,0,0,0,0,0,-0.1426,-0.1435,-0.1445,-0.1472,-0.1482,-0.1524,-0.152,-0.1524,-0.1539,-0.1539,-0.1567,-0.1571,-0.1584,-0.1616,-0.1622,-0.1635,-0.162,-0.1697,-0.1698,-0.1699,-0.1698,-0.17,-0.1701,0,0,0,0,0,-0.1423,-0.1443,-0.1446,-0.1453,-0.1495,-0.1524,-0.153,-0.1543,-0.1539,-0.155,-0.1566,-0.1571,-0.1628,-0.1619,-0.1626,-0.1639,-0.1696,-0.1698,-0.1699,-0.1697,-0.1699,-0.1701,0,0,0,0,0,0,-0.1417,-0.1447,-0.145,-0.1479,-0.1499,-0.1526,-0.154,-0.1545,-0.1567,-0.1566,-0.1583,-0.1589,-0.1617,-0.1631,-0.162,-0.1668,-0.1662,-0.1665,-0.1658,-0.166,-0.1662,-0.1659,-0.1622,0,0,0,0,0,-0.1419,-0.144,-0.1465,-0.1488,-0.1498,-0.1517,-0.153,-0.1539,-0.156,-0.1569,-0.1587,-0.1608,-0.1631,-0.1646,-0.1669,-0.1699,-0.1707,-0.1712,-0.1714,-0.1715,-0.1718,-0.1737,-0.174,-0.1705,-0.1705,-0.1705,0,0,-0.1424,-0.1443,-0.1455,-0.1488,-0.1504,-0.1526,-0.1524,-0.1547,-0.1564,-0.1573,-0.1602,-0.1616,-0.164,-0.1671,-0.1685,-0.1683,-0.1729,-0.1717,-0.1718,-0.172,-0.1739,-0.1742,-0.1745,-0.1706,-0.1706,-0.1706,0,0,-0.1444,-0.146,-0.1482,-0.1498,-0.1522,-0.1535,-0.154,-0.1566,-0.1576,-0.1605,-0.1612,-0.1632,-0.1671,-0.1689,-0.1703,-0.1729,-0.1735,-0.1736,-0.1745,-0.1763,-0.1766,-0.1769,-0.178,-0.1783,-0.1739,-0.1739,-0.1739,0,-0.1447,-0.148,-0.1492,-0.1515,-0.153,-0.1538,-0.1561,-0.1576,-0.1607,-0.1618,-0.1614,-0.1664,-0.1681,-0.1716,-0.1723,-0.1733,-0.1741,-0.1734,-0.1764,-0.1767,-0.177,-0.1781,-0.1785,-0.1739,-0.1739,-0.1739,-0.1739,0,-0.1483,-0.1506,-0.1521,-0.155,-0.1566,-0.1589,-0.1606,-0.162,-0.1627,-0.164,-0.167,-0.1691,-0.1718,-0.1727,-0.1734,-0.1763,-0.1762,-0.1761,-0.1756,-0.1773,-0.1784,-0.1788,-0.1739,-0.1739,-0.1739,-0.1739,0,0,-0.1503,-0.1538,-0.1544,-0.1558,-0.1585,-0.1603,-0.1626,-0.1652,-0.1666,-0.1686,-0.1707,-0.1739,-0.1739,-0.1755,-0.1764,-0.178,-0.1801,-0.1778,-0.1779,-0.1783,-0.1837,-0.1839,-0.1843,-0.1804,-0.1805,-0.1806,-0.1836,0,-0.1528,-0.157,-0.1581,-0.1617,-0.1639,-0.1646,-0.1666,-0.1686,-0.1698,-0.1719,-0.1733,-0.1757,-0.1754,-0.1764,-0.1779,-0.1795,-0.1813,-0.1793,-0.1825,-0.1826,-0.1821,-0.1848,-0.185,-0.1877,-0.1839,-0.184,-0.1841,0,-0.1563,-0.1584,-0.1622,-0.1647,-0.1656,-0.1675,-0.17,-0.1719,-0.1741,-0.1749,-0.1767,-0.1775,-0.18,-0.1792,-0.1828,-0.1815,-0.1828,-0.1838,-0.184,-0.1845,-0.1836,-0.1856,-0.1886,-0.1891,-0.1847,-0.1846,-0.1846,0,-0.1576,-0.1614,-0.1641,-0.1652,-0.1682,-0.1695,-0.1708,-0.1729,-0.1744,-0.1766,-0.1777,-0.1801,-0.1815,-0.1835,-0.1849,-0.1842,-0.1885,-0.1877,-0.1894,-0.1893,-0.1904,-0.1904,-0.1939,-0.1909,-0.1909,-0.1909,-0.1909,0,-0.1604,-0.1627,-0.1648,-0.1665,-0.1691,-0.1704,-0.173,-0.1743,-0.1763,-0.1783,-0.1791,-0.181,-0.1827,-0.1849,-0.186,-0.1889,-0.1895,-0.1903,-0.1906,-0.1904,-0.1903,-0.1915,-0.1914,-0.191,-0.191,-0.191,-0.1909,0,-0.1624,-0.1638,-0.1669,-0.1694,-0.1701,-0.1719,-0.1741,-0.1759,-0.1771,-0.1797,-0.1804,-0.1824,-0.185,-0.1866,-0.1898,-0.1906,-0.1939,-0.194,-0.1932,-0.1933,-0.1949,-0.1948,-0.1995,-0.2003,-0.1966,-0.1966,-0.1966,0,-0.1642,-0.166,-0.1687,-0.1701,-0.1714,-0.1736,-0.1751,-0.1765,-0.1781,-0.1807,-0.1822,-0.1848,-0.187,-0.1912,-0.193,-0.1955,-0.1959,-0.1973,-0.1963,-0.196,-0.1961,-0.1961,-0.1964,-0.1976,-0.1976,-0.1976,-0.1976,0,-0.1673,-0.1679,-0.17,-0.1725,-0.1743,-0.1763,-0.1782,-0.1794,-0.181,-0.1828,-0.1855,-0.1871,-0.1905,-0.1932,-0.1959,-0.1973,-0.1978,-0.1979,-0.1985,-0.1983,-0.1978,-0.1983,-0.1939,-0.1979,-0.1978,-0.1978,-0.1978,-0.1978,-0.1694,-0.171,-0.1732,-0.1756,-0.1772,-0.1791,-0.1809,-0.1823,-0.1845,-0.1873,-0.1879,-0.1908,-0.193,-0.1967,-0.1981,-0.2004,-0.2002,-0.201,-0.2012,-0.2014,-0.2016,-0.1973,-0.2009,-0.2009,-0.2009,-0.2009,-0.2009,0,-0.1727,-0.1741,-0.1763,-0.179,-0.1809,-0.1811,-0.1833,-0.1849,-0.1874,-0.1894,-0.1915,-0.1946,-0.1972,-0.1991,-0.2018,-0.2033,-0.2036,-0.2039,-0.204,-0.2043,-0.2015,-0.2009,-0.2037,-0.2037,-0.2037,-0.2037,-0.2037,-0.2036,-0.1747,-0.1776,-0.1784,-0.1821,-0.1835,-0.1863,-0.1876,-0.1893,-0.1909,-0.1943,-0.1964,-0.1976,-0.1997,-0.2025,-0.2049,-0.2054,-0.2065,-0.2068,-0.2074,-0.2048,-0.2045,-0.2042,-0.2037,-0.207,-0.207,-0.2101,-0.2101,-0.2101]},{"header":{"parameterUnit":"m.s-1","parameterCategory":1,"la1":30.2991,"la2":30.254,"lo1":-89.0895,"lo2":-89.0444,"dy":0.0017,"dx":0.0017,"nx":28,"ny":28,"refTime":"2024-10-02T09:00:00:Z","depth":0,"parameterNumber":3,"parameterNumberName":"V-component_of_WINDS"},"data":[0,0,0,0,0,0,0,0,0,0,0,0,0,0,0,0,0,0,0,0,0,0,0,0,0,0,0,0,0,0,0,0,0,0,0,0,0,0,0,0,0,0,0,0,0,0,0,0,0,0,0,0,0,0,0,0,0,0,-1.4705,-1.4705,0,-1.4683,-1.4683,-1.4682,-1.4667,-1.4667,-1.4666,-1.4666,-1.4643,-1.4643,-1.4642,0,0,0,0,0,0,0,0,0,0,0,0,0,-1.4734,-1.4733,-1.4705,-1.4705,-1.4705,-1.4683,-1.4683,-1.4682,-1.4667,-1.4667,-1.4666,-1.4666,-1.4643,-1.4643,-1.4642,0,0,0,0,0,0,0,0,0,0,0,0,0,-1.4717,-1.4733,-1.4705,-1.4694,-1.4693,-1.4683,-1.4683,-1.4682,-1.4667,-1.4667,-1.4666,-1.4666,-1.4643,-1.4643,-1.4642,-1.4641,0,0,-1.464,-1.4639,0,0,0,0,0,0,0,0,-1.4718,-1.4716,-1.4696,-1.4695,-1.4694,-1.4677,-1.4684,-1.4668,-1.4667,-1.4677,-1.4666,-1.4666,-1.4655,-1.4653,-1.4649,-1.464,-1.4639,-1.464,-1.4639,-1.4639,-1.4639,0,0,0,0,0,0,0,-1.472,-1.4717,-1.4696,-1.4696,-1.4694,-1.469,-1.4688,-1.4681,-1.4667,-1.4676,-1.4675,-1.4672,-1.4654,-1.465,-1.4648,-1.4638,-1.464,-1.4639,-1.4638,-1.4638,-1.4626,-1.4626,0,0,0,0,0,0,-1.4722,-1.4718,-1.4697,-1.4696,-1.4706,-1.469,-1.4687,-1.4683,-1.4667,-1.4664,-1.4672,-1.4672,-1.4651,-1.4649,-1.4648,-1.4644,-1.4639,-1.4638,-1.4638,-1.4626,-1.4626,-1.4626,0,0,0,0,0,0,-1.4723,-1.4721,-1.4698,-1.4707,-1.4704,-1.469,-1.4685,-1.4682,-1.4678,-1.4664,-1.4662,-1.4671,-1.4651,-1.4649,-1.4642,-1.4643,-1.4638,-1.4637,-1.4626,-1.4626,-1.4626,-1.4639,0,0,0,0,0,0,-1.4724,-1.4721,-1.4721,-1.4707,-1.4703,-1.4694,-1.4685,-1.4682,-1.4677,-1.4676,-1.4662,-1.466,-1.4651,-1.4644,-1.4642,-1.4642,-1.4636,-1.4625,-1.4626,-1.4626,-1.4638,-1.4639,-1.464,0,0,0,0,0,-1.4725,-1.4726,-1.4721,-1.4718,-1.4703,-1.4694,-1.4692,-1.4681,-1.4677,-1.4677,-1.4668,-1.466,-1.4644,-1.4643,-1.4641,-1.4641,-1.4625,-1.4626,-1.4626,-1.4638,-1.4639,-1.464,0,0,0,0,0,0,-1.474,-1.4724,-1.4718,-1.4714,-1.4705,-1.4691,-1.469,-1.4683,-1.4675,-1.4674,-1.4662,-1.4659,-1.4653,-1.4647,-1.4646,-1.4639,-1.4634,-1.4633,-1.4643,-1.4645,-1.4646,-1.4647,-1.4636,0,0,0,0,0,-1.4743,-1.4738,-1.4723,-1.4721,-1.4717,-1.4704,-1.47,-1.4693,-1.4683,-1.4679,-1.467,-1.4661,-1.4653,-1.4649,-1.4641,-1.4637,-1.4633,-1.4636,-1.4637,-1.4638,-1.4638,-1.4635,-1.4635,-1.4627,-1.4627,-1.4627,0,0,-1.4749,-1.4739,-1.4736,-1.4724,-1.4716,-1.471,-1.4701,-1.4696,-1.4691,-1.4678,-1.4672,-1.4664,-1.4653,-1.4648,-1.4645,-1.4642,-1.464,-1.4639,-1.464,-1.4639,-1.4635,-1.4636,-1.4637,-1.4627,-1.4627,-1.4627,0,0,-1.4756,-1.4749,-1.4746,-1.4738,-1.4726,-1.4718,-1.4717,-1.4704,-1.4698,-1.4691,-1.4681,-1.4676,-1.4663,-1.4655,-1.465,-1.4653,-1.4646,-1.4651,-1.4657,-1.4654,-1.4654,-1.4655,-1.4656,-1.4656,-1.4651,-1.4651,-1.4651,0,-1.4765,-1.4756,-1.4745,-1.474,-1.4734,-1.4722,-1.4718,-1.4712,-1.4698,-1.4694,-1.4691,-1.4675,-1.4667,-1.4659,-1.466,-1.4656,-1.4654,-1.4653,-1.4655,-1.4656,-1.4656,-1.4656,-1.4657,-1.4652,-1.4652,-1.4652,-1.4652,0,-1.4767,-1.4761,-1.4759,-1.4747,-1.4741,-1.4737,-1.4724,-1.472,-1.4713,-1.4704,-1.4697,-1.4686,-1.4676,-1.4674,-1.4667,-1.4665,-1.4663,-1.4658,-1.4652,-1.4658,-1.4658,-1.4658,-1.4653,-1.4653,-1.4653,-1.4652,0,0,-1.4783,-1.4764,-1.4764,-1.4757,-1.4743,-1.4738,-1.4733,-1.4723,-1.4719,-1.471,-1.4705,-1.4694,-1.4689,-1.4682,-1.4675,-1.4672,-1.4674,-1.4667,-1.4666,-1.4668,-1.467,-1.4674,-1.4674,-1.4669,-1.4669,-1.4669,-1.4671,0,-1.4788,-1.4778,-1.4768,-1.4761,-1.4755,-1.4743,-1.4739,-1.4729,-1.4721,-1.4714,-1.4705,-1.4698,-1.4692,-1.4688,-1.4684,-1.4675,-1.4674,-1.4674,-1.4664,-1.4664,-1.4667,-1.4674,-1.4679,-1.4681,-1.4671,-1.4671,-1.4671,0,-1.4793,-1.4784,-1.4777,-1.4763,-1.476,-1.4756,-1.4745,-1.4739,-1.4728,-1.4722,-1.4715,-1.4706,-1.4699,-1.4695,-1.4685,-1.4685,-1.468,-1.4674,-1.4674,-1.4672,-1.4667,-1.4673,-1.4681,-1.4681,-1.4671,-1.4671,-1.4671,0,-1.4805,-1.4791,-1.4785,-1.478,-1.4764,-1.4761,-1.4754,-1.4743,-1.4737,-1.4728,-1.4724,-1.4714,-1.4708,-1.47,-1.4689,-1.4687,-1.468,-1.4674,-1.4674,-1.4675,-1.4673,-1.4673,-1.4681,-1.4671,-1.4671,-1.4671,-1.4671,0,-1.4811,-1.4807,-1.479,-1.4786,-1.4781,-1.4769,-1.4764,-1.4756,-1.4746,-1.474,-1.4729,-1.4724,-1.4709,-1.4702,-1.4693,-1.4685,-1.4683,-1.4678,-1.4675,-1.4679,-1.4679,-1.4675,-1.4674,-1.4671,-1.4671,-1.4671,-1.4671,0,-1.4824,-1.4812,-1.4805,-1.4789,-1.4786,-1.4782,-1.4769,-1.4765,-1.4756,-1.4748,-1.4746,-1.4732,-1.4722,-1.471,-1.4697,-1.4691,-1.4684,-1.4681,-1.4688,-1.4687,-1.4687,-1.4687,-1.4692,-1.4691,-1.4682,-1.4682,-1.4682,0,-1.4828,-1.4825,-1.4809,-1.4804,-1.4798,-1.479,-1.4784,-1.4772,-1.4766,-1.4752,-1.4749,-1.4739,-1.473,-1.4716,-1.4704,-1.4694,-1.469,-1.4692,-1.4688,-1.4691,-1.4689,-1.4689,-1.4688,-1.4693,-1.4693,-1.4693,-1.4693,0,-1.4837,-1.4832,-1.4824,-1.4813,-1.4806,-1.4798,-1.4788,-1.4785,-1.477,-1.4764,-1.4755,-1.4748,-1.4734,-1.4724,-1.4712,-1.4704,-1.4696,-1.4695,-1.4694,-1.4697,-1.4701,-1.4698,-1.469,-1.4694,-1.4694,-1.4694,-1.4694,-1.4694,-1.4845,-1.4842,-1.483,-1.4821,-1.4813,-1.4804,-1.4799,-1.4789,-1.4781,-1.4769,-1.4762,-1.4752,-1.474,-1.4723,-1.4716,-1.4708,-1.4705,-1.4704,-1.4704,-1.4704,-1.4704,-1.4703,-1.4705,-1.4705,-1.4705,-1.4705,-1.4705,0,-1.4853,-1.4845,-1.4837,-1.4825,-1.4817,-1.4811,-1.48,-1.4794,-1.4786,-1.4775,-1.4767,-1.4755,-1.4745,-1.4732,-1.4721,-1.4717,-1.4713,-1.4714,-1.4714,-1.4713,-1.4708,-1.4709,-1.4718,-1.4718,-1.4718,-1.4718,-1.4718,-1.4718,-1.4857,-1.485,-1.4843,-1.4831,-1.4823,-1.4813,-1.4807,-1.4799,-1.4791,-1.4778,-1.477,-1.4762,-1.475,-1.4738,-1.4728,-1.4724,-1.4721,-1.4723,-1.4718,-1.4714,-1.4713,-1.4712,-1.4713,-1.4722,-1.4722,-1.4724,-1.4724,-1.4724]}]]